TimePDT,TemperatureF,Dew PointF,Humidity,Sea Level PressureIn,VisibilityMPH,Wind Direction,Wind SpeedMPH,Gust SpeedMPH,PrecipitationIn,Events,Conditions,WindDirDegrees,DateUTC
12:53 AM,53.1,53.1,100,29.90,10.0,Calm,Calm,-,N/A,,Partly Cloudy,0,2013-10-08 07:53:00
1:53 AM,55.0,55.0,100,29.91,10.0,NNW,4.6,-,N/A,,Scattered Clouds,330,2013-10-08 08:53:00
2:53 AM,53.1,53.1,100,29.89,10.0,Calm,Calm,-,N/A,,Clear,0,2013-10-08 09:53:00
3:53 AM,52.0,52.0,100,29.89,10.0,Calm,Calm,-,N/A,,Clear,0,2013-10-08 10:53:00
4:53 AM,48.9,48.9,100,29.90,10.0,North,4.6,-,N/A,,Clear,10,2013-10-08 11:53:00
5:53 AM,52.0,50.0,93,29.89,10.0,Calm,Calm,-,N/A,,Clear,0,2013-10-08 12:53:00
6:53 AM,52.0,48.9,89,29.91,10.0,Calm,Calm,-,N/A,,Clear,0,2013-10-08 13:53:00
7:53 AM,53.1,46.0,77,29.91,10.0,Calm,Calm,-,N/A,,Clear,0,2013-10-08 14:53:00
8:53 AM,59.0,59.0,100,29.92,10.0,Calm,Calm,-,N/A,,Clear,0,2013-10-08 15:53:00
9:53 AM,62.1,57.9,86,29.92,10.0,West,4.6,-,N/A,,Partly Cloudy,280,2013-10-08 16:53:00
10:53 AM,64.9,55.0,70,29.91,10.0,NW,6.9,-,N/A,,Mostly Cloudy,310,2013-10-08 17:53:00
11:53 AM,66.9,52.0,59,29.90,10.0,WNW,4.6,-,N/A,,Mostly Cloudy,290,2013-10-08 18:53:00
12:53 PM,68.0,50.0,52,29.87,10.0,WNW,4.6,-,N/A,,Mostly Cloudy,290,2013-10-08 19:53:00
1:53 PM,68.0,51.1,55,29.84,10.0,WNW,9.2,-,N/A,,Mostly Cloudy,300,2013-10-08 20:53:00
2:53 PM,69.1,50.0,51,29.81,10.0,West,10.4,-,N/A,,Mostly Cloudy,280,2013-10-08 21:53:00
3:53 PM,66.0,50.0,56,29.81,10.0,NW,11.5,-,N/A,,Scattered Clouds,310,2013-10-08 22:53:00
4:53 PM,64.0,48.9,58,29.79,10.0,WNW,9.2,-,N/A,,Scattered Clouds,300,2013-10-08 23:53:00
5:53 PM,62.1,52.0,70,29.78,10.0,WNW,6.9,-,N/A,,Partly Cloudy,300,2013-10-09 00:53:00
6:53 PM,59.0,55.0,87,29.77,10.0,WNW,8.1,-,N/A,,Partly Cloudy,290,2013-10-09 01:53:00
7:53 PM,57.9,55.9,93,29.76,9.0,SW,6.9,-,N/A,,Partly Cloudy,230,2013-10-09 02:53:00
8:53 PM,53.1,53.1,100,29.75,10.0,North,3.5,-,N/A,,Partly Cloudy,10,2013-10-09 03:53:00
9:53 PM,57.4,47.5,70,29.76,10.0,Calm,Calm,-,N/A,,Partly Cloudy,0,2013-10-09 04:53:00
10:53 PM,58.5,50.4,74,29.75,10.0,Calm,Calm,-,N/A,,Partly Cloudy,0,2013-10-09 05:53:00
11:31 PM,57.2,50.0,77,29.74,9.0,South,9.2,-,N/A,,Partly Cloudy,170,2013-10-09 06:31:00
11:53 PM,57.9,50.0,75,29.73,10.0,Calm,Calm,-,N/A,,Partly Cloudy,0,2013-10-09 06:53:00